Prescott, AZ

11:48 AM MST on February 13, 2016 (GMT -0700)
Love

Weather History for KPRC - January, 2013

Change the Weather History Date:

Friday, January 4, 2013

  Actual Average Record
Temperature  
Mean Temperature 30 °F 38 °F  
Max Temperature 45 °F 51 °F 67 °F (2012)
Min Temperature 16 °F 25 °F 0 °F (1949)
Degree Days  
Heating Degree Days 34    
Month to date heating degree days  
Since 1 July heating degree days  
Cooling Degree Days 0    
Month to date cooling degree days  
Year to date cooling degree days  
Moisture  
Dew Point 6 °F    
Average Humidity 44    
Maximum Humidity 68    
Minimum Humidity 13    
Precipitation  
Precipitation 0.00 in 0.04 in 0.98 in (1989)
Month to date precipitation 0.16  
Year to date precipitation 0.16  
Sea Level Pressure  
Sea Level Pressure 30.28 in    
Wind  
Wind Speed 4 mph (SW)    
Max Wind Speed 8 mph    
Max Gust Speed -    
Visibility 10 miles    
Events      
T = Trace of Precipitation, MM = Missing Value Source: NWS Daily Summary

Daily Weather History Graph

Daily Weather History Graph

Search for Another Location

Airport or City:

Trip Planner

Search our weather history database for the weather conditions in past years. The results will help you decide how hot, cold, wet, or windy it might be!

Date:

Astronomy

Jan. 04, 2013 Rise Set
Actual Time 7:37 AM MST 5:32 PM MST
Civil Twilight 7:09 AM MST 6:00 PM MST
Nautical Twilight 6:38 AM MST 6:31 PM MST
Astronomical Twilight 6:07 AM MST 7:02 PM MST
Moon No Moon Rise 11:41 AM MST (1/4)
Length of Visible Light 10h 50m
Length of Day
9h 55m
Waning Gibbous, 54% of the Moon is Illuminated
Jan 4
Waning Gibbous
Jan 4
Last Quarter
Jan 11
New
Jan 18
First Quarter
Jan 26
Full

Hourly Weather History & Observations

Time (MST) Temp. Windchill Dew Point Humidity Pressure Visibility Wind Dir Wind Speed Gust Speed Precip Events Conditions
12:53 AM 19.9 °F 12.1 °F 9.0 °F 62% 30.27 in 10.0 mi South 5.8 mph - N/A   Clear
1:53 AM 19.9 °F - 8.1 °F 60% 30.25 in 10.0 mi Calm Calm - N/A   Clear
2:53 AM 18.0 °F - 8.1 °F 65% 30.26 in 10.0 mi Calm Calm - N/A   Clear
4:53 AM 16.0 °F - 7.0 °F 68% 30.29 in 10.0 mi Calm Calm - N/A   Clear
6:53 AM 16.0 °F 7.4 °F 7.0 °F 68% 30.34 in 10.0 mi South 5.8 mph - N/A   Clear
7:53 AM 16.0 °F 6.3 °F 7.0 °F 68% 30.36 in 10.0 mi SSW 6.9 mph - N/A   Clear
8:53 AM 21.0 °F 16.2 °F 10.0 °F 63% 30.36 in 10.0 mi South 3.5 mph - N/A   Clear
9:53 AM 28.0 °F - 10.9 °F 49% 30.34 in 10.0 mi Calm Calm - N/A   Clear
10:53 AM 33.1 °F 27.7 °F 6.1 °F 32% 30.32 in 10.0 mi NNW 5.8 mph - N/A   Clear
11:53 AM 35.1 °F 31.0 °F 7.0 °F 31% 30.27 in 10.0 mi North 4.6 mph - N/A   Clear
12:53 PM 39.0 °F 34.8 °F 7.0 °F 27% 30.23 in 10.0 mi North 5.8 mph - N/A   Clear
1:53 PM 42.1 °F 38.4 °F 3.9 °F 21% 30.21 in 10.0 mi North 5.8 mph - N/A   Clear
2:53 PM 43.0 °F 39.5 °F -5.1 °F 13% 30.21 in 10.0 mi NW 5.8 mph - N/A   Clear
3:53 PM 45.0 °F 41.8 °F -2.9 °F 14% 30.21 in 10.0 mi NNE 5.8 mph - N/A   Clear
4:53 PM 44.1 °F - -5.1 °F 13% 30.21 in 10.0 mi Calm Calm - N/A   Clear
5:53 PM 37.0 °F - 1.0 °F 22% 30.25 in 10.0 mi Calm Calm - N/A   Clear
6:53 PM 28.0 °F 22.8 °F 9.0 °F 45% 30.29 in 10.0 mi South 4.6 mph - N/A   Clear
7:53 PM 28.9 °F 21.1 °F 8.1 °F 41% 30.30 in 10.0 mi South 8.1 mph - N/A   Clear
8:53 PM 28.0 °F 20.0 °F 8.1 °F 43% 30.29 in 9.0 mi South 8.1 mph - N/A   Clear
9:53 PM 25.0 °F 17.1 °F 9.0 °F 51% 30.29 in 10.0 mi SSW 6.9 mph - N/A   Clear
10:53 PM 24.1 °F 19.7 °F 8.1 °F 51% 30.28 in 10.0 mi South 3.5 mph - N/A   Clear
11:53 PM 23.0 °F 15.8 °F 8.1 °F 53% 30.27 in 10.0 mi SSW 5.8 mph - N/A   Clear